Onweer radar Meer informatie blitzortung!


Regen radar Meer informatie rain snow radar


Bezoek onze andere website:

Template documentation
and downloads

And another site



15 daagse weersverwachting Uster (CH)

  • Overzicht
  • Per uur
  • 15 dagen
  • Extra
  • Vergelijk
  • Kaarten
  • Dagkaart
  • Meer »
  • Info
  • Statistieken
  • Directe link
    Temp 6h Neerslag Wind  
 06:06     20:58    Daglengte: 14:52 Vandaag
02:00
16°
2.5 mm
2
08:00
14°
23.7 mm
2
14:00
17°
11.0 mm
1
20:00
16°
 
2
 06:07     20:57    Daglengte: 14:50 Morgen
02:00
13°
 
2
08:00
14°
 
1
14:00
20°
 
3
20:00
19°
15.7 mm
2
 06:08     20:55    Daglengte: 14:47 Dinsdag 03 Aug
02:00
13°
 
1
08:00
14°
 
1
14:00
21°
17.2 mm
2
20:00
18°
16.7 mm
2
Locatie info
Region: Uster
Latitude: 47.3495°N
Longitude: 8.7152°E
469 masl
Postcode: 8610
Temp/Neerslag /Baro Onweer/Dauwpunt
    Temp Baro 1h Neerslag Dauwpunt Wind UV Bewolking  
 06:06     20:58    Daglengte: 14:52 Vandaag
01:00
16°
1010.0 hPa
48%
12.9°
1
Windvlaag: 3.6 m/s
86%
02:00
16°
1010.2 hPa 2.5 mm
82%
13.3°
2
Windvlaag: 3.2 m/s
86%
03:00
15°
1010.0 hPa 3.2 mm
82%
13.4°
2
Windvlaag: 1.8 m/s
86%
04:00
15°
1009.9 hPa 4.0 mm
82%
13.2°
3
Windvlaag: 2.8 m/s
86%
05:00
14°
1009.6 hPa 4.8 mm
82%
13.0°
3
Windvlaag: 3.1 m/s
86%
06:00
15°
1010.2 hPa 5.3 mm
82%
13.3°
3
Windvlaag: -0.5 m/s
86%
07:00
14°
1010.8 hPa 3.5 mm
82%
13.3°
3
Windvlaag: -2.7 m/s
86%
08:00
14°
1011.3 hPa 2.9 mm
82%
13.3°
2
Windvlaag: -3.3 m/s
86%
09:00
14°
1011.9 hPa 3.7 mm
82%
13.2°
2
Windvlaag: -3.2 m/s
86%
10:00
14°
1012.6 hPa 3.8 mm
82%
12.6°
2
Windvlaag: -3.2 m/s
84%
11:00
14°
1013.0 hPa 3.5 mm
82%
11.2°
1
Windvlaag: -1 m/s
76%
12:00
15°
1012.9 hPa
82%
11.9°
1
Windvlaag: 2.1 m/s
56%
13:00
16°
1012.5 hPa
82%
12.3°
2
Windvlaag: 2.8 m/s
48%
14:00
17°
1012.3 hPa
82%
12.2°
1
Windvlaag: 2.1 m/s
48%
15:00
17°
1012.1 hPa
82%
11.8°
2
Windvlaag: 2.2 m/s
50%
16:00
18°
1012.0 hPa
82%
12.0°
2
Windvlaag: -1.9 m/s
59%
17:00
18°
1012.2 hPa
82%
10.8°
2
Windvlaag: -2.1 m/s
74%
18:00
17°
1012.5 hPa
77%
10.2°
2
Windvlaag: -2 m/s
85%
19:00
17°
1012.7 hPa
71%
10.0°
1
Windvlaag: -0.3 m/s
68%
20:00
16°
1013.1 hPa
28%
8.7°
2
Windvlaag: 2.9 m/s
65%
21:00
15°
1013.6 hPa
20%
10.1°
1
Windvlaag: 3 m/s
69%
22:00
15°
1014.2 hPa
15%
11.3°
2
Windvlaag: 3.2 m/s
42%
23:00
15°
1014.6 hPa
14%
12.3°
2
Windvlaag: 3.8 m/s
14%
 06:07     20:57    Daglengte: 14:50 Morgen
00:00
14°
1014.7 hPa
14%
12.3°
2
Windvlaag: 3.8 m/s
13%
01:00
14°
1014.8 hPa
14%
12.4°
2
Windvlaag: 2.5 m/s
13%
02:00
13°
1014.9 hPa
14%
12.0°
2
Windvlaag: 2.4 m/s
14%
03:00
13°
1014.8 hPa
14%
12.1°
1
Windvlaag: 2.1 m/s
13%
04:00
13°
1014.9 hPa
14%
11.5°
1
Windvlaag: 1.8 m/s
16%
05:00
13°
1014.9 hPa
17%
11.4°
1
Windvlaag: 1.9 m/s
15%
06:00
13°
1015.2 hPa
55%
11.3°
1
Windvlaag: 1.1 m/s
15%
07:00
13°
1015.6 hPa
59%
10.9°
1
Windvlaag: 0.9 m/s
29%
08:00
14°
1015.8 hPa
59%
11.3°
1
Windvlaag: 0.6 m/s
18%
09:00
15°
1016.0 hPa
70%
11.9°
2
Windvlaag: -0.9 m/s
12%
10:00
16°
1016.0 hPa
74%
12.1°
2
Windvlaag: -0.8 m/s
24%
11:00
16°
1016.1 hPa
73%
12.4°
2
Windvlaag: -0.8 m/s
13%
12:00
18°
1015.7 hPa
72%
12.4°
2
Windvlaag: -1.5 m/s
9%
13:00
19°
1015.3 hPa
70%
12.2°
2
Windvlaag: -1.4 m/s
8%
14:00
20°
1015.0 hPa
65%
12.2°
3
Windvlaag: -0.4 m/s
11%
15:00
20°
1014.9 hPa
67%
12.2°
3
Windvlaag: -0.4 m/s
13%
16:00
20°
1014.9 hPa
60%
13.0°
3
Windvlaag: -0.4 m/s
9%
17:00
20°
1014.6 hPa 8.1 mm
22%
9.1°
3
Windvlaag: 0.8 m/s
16%
18:00
20°
1014.7 hPa 7.7 mm
22%
10.0°
3
Windvlaag: 0.1 m/s
19%
19:00
19°
1014.9 hPa
21%
11.0°
2
Windvlaag: 0.8 m/s
25%
20:00
19°
1015.0 hPa
21%
11.9°
2
Windvlaag: 1.5 m/s
30%
21:00
17°
1015.4 hPa
21%
11.6°
1
Windvlaag: 1.3 m/s
23%
22:00
16°
1015.9 hPa
21%
11.5°
1
Windvlaag: 1 m/s
30%
23:00
15°
1016.1 hPa
21%
11.7°
1
Windvlaag: 0.7 m/s
30%
 06:08     20:55    Daglengte: 14:47 Dinsdag 03 Aug
00:00
14°
1016.2 hPa
21%
11.4°
1
Windvlaag: 0.6 m/s
14%
01:00
14°
1015.9 hPa
21%
10.6°
1
Windvlaag: 0.8 m/s
30%
02:00
13°
1015.4 hPa
21%
9.8°
1
Windvlaag: -0.2 m/s
57%
03:00
13°
1015.1 hPa
21%
8.9°
1
Windvlaag: -0.3 m/s
51%
04:00
13°
1015.0 hPa
21%
8.4°
1
Windvlaag: 0 m/s
44%
05:00
12°
1014.8 hPa
21%
7.7°
1
Windvlaag: 0.3 m/s
35%
06:00
12°
1014.6 hPa
21%
7.5°
1
Windvlaag: -0.1 m/s
35%
07:00
13°
1014.7 hPa
21%
5.1°
1
Windvlaag: -0.2 m/s
48%
08:00
14°
1014.7 hPa
21%
6.9°
1
Windvlaag: -0.5 m/s
55%
09:00
16°
1014.6 hPa
21%
8.8°
1
Windvlaag: -0.3 m/s
57%
10:00
17°
1014.3 hPa
21%
9.9°
1
Windvlaag: 0.3 m/s
66%
11:00
19°
1014.0 hPa
21%
9.3°
1
Windvlaag: 0.3 m/s
71%
12:00
20°
1013.6 hPa
25%
9.1°
1
Windvlaag: 1.5 m/s
75%
13:00
21°
1013.1 hPa 7.8 mm
29%
9.9°
1
Windvlaag: 3.6 m/s
65%
14:00
21°
1013.0 hPa 9.4 mm
86%
12.6°
2
Windvlaag: 7 m/s
80%
15:00
22°
1012.3 hPa
76%
15.0°
2
Windvlaag: 10.5 m/s
47%
16:00
22°
1012.3 hPa
99%
11.9°
2
Windvlaag: 10.1 m/s
58%
17:00
21°
1012.4 hPa
100%
15.8°
2
Windvlaag: 6.1 m/s
77%
18:00
20°
1012.9 hPa 8.3 mm
100%
14.5°
3
Windvlaag: 7 m/s
78%
19:00
18°
1013.4 hPa 8.5 mm
100%
13.3°
3
Windvlaag: 6.7 m/s
92%
20:00
18°
1013.9 hPa
94%
14.5°
2
Windvlaag: 7.1 m/s
86%
21:00
17°
1014.1 hPa
45%
13.8°
2
Windvlaag: 6.8 m/s
75%
22:00
16°
1014.6 hPa
30%
13.7°
2
Windvlaag: 3.5 m/s
42%
23:00
15°
1014.8 hPa
22%
13.1°
1
Windvlaag: 2.3 m/s
14%
 06:09     20:54    Daglengte: 14:45 Woensdag 04 Aug
00:00
14°
1014.9 hPa
22%
12.7°
1
Windvlaag: 2.6 m/s
13%
Temp/Neerslag /Baro Onweer/Dauwpunt
    Temp Baro Neerslag Dauwpunt Wind Bewolking  
 06:06     20:58    Daglengte: 14:52 Vandaag
02:00
16°
1010.2 hPa 2.5 mm 13.3°
2
86%
05:00
14°
1009.6 hPa 12.0 mm 13.0°
3
86%
08:00
14°
1011.3 hPa 11.7 mm 13.3°
2
86%
11:00
14°
1013.0 hPa 11.0 mm 11.2°
1
76%
14:00
17°
1012.3 hPa   12.2°
1
48%
17:00
18°
1012.2 hPa   10.8°
2
74%
20:00
16°
1013.1 hPa   8.7°
2
65%
23:00
15°
1014.6 hPa   12.3°
2
14%
 06:07     20:57    Daglengte: 14:50 Morgen
02:00
13°
1014.9 hPa   12.0°
2
14%
05:00
13°
1014.9 hPa   11.4°
1
15%
08:00
14°
1015.8 hPa   11.3°
1
18%
11:00
16°
1016.1 hPa   12.4°
2
13%
14:00
20°
1015.0 hPa   12.2°
3
11%
17:00
20°
1014.6 hPa 8.1 mm 9.1°
3
16%
20:00
19°
1015.0 hPa 7.7 mm 11.9°
2
30%
23:00
15°
1016.1 hPa   11.7°
1
30%
 06:08     20:55    Daglengte: 14:47 Dinsdag 03 Aug
02:00
13°
1015.4 hPa   9.8°
1
57%
05:00
12°
1014.8 hPa   7.7°
1
35%
08:00
14°
1014.7 hPa   6.9°
1
55%
11:00
19°
1014.0 hPa   9.3°
1
71%
14:00
21°
1013.0 hPa 17.2 mm 12.6°
2
80%
17:00
21°
1012.4 hPa   15.8°
2
77%
20:00
18°
1013.9 hPa 16.7 mm 14.5°
2
86%
23:00
15°
1014.8 hPa   13.1°
1
14%
 06:09     20:54    Daglengte: 14:45 Woensdag 04 Aug
02:00
14°
1014.6 hPa   12.1°
1
35%
05:00
12°
1013.7 hPa 52.1 mm 11.0°
0
1%
08:00
14°
1013.7 hPa 52.2 mm 11.7°
1
1%
11:00
14°
1014.8 hPa 55.5 mm 13.3°
2
1%
14:00
15°
1015.0 hPa 56.8 mm 14.4°
1
1%
17:00
15°
1016.3 hPa 58.3 mm 14.3°
2
1%
20:00
14°
1017.0 hPa 59.7 mm 13.3°
2
1%
23:00
13°
1018.3 hPa 60.8 mm 12.4°
1
1%
 06:11     20:52    Daglengte: 14:41 Donderdag 05 Aug
02:00
11°
1018.3 hPa 61.0 mm 10.1°
1
1%
05:00
10°
Voelt als: 9.4°
1017.7 hPa 61.0 mm 9.2°
1
1%
08:00
12°
1016.8 hPa 61.0 mm 10.9°
1
0%
11:00
17°
1014.7 hPa 61.0 mm 10.9°
2
1%
14:00
19°
1013.0 hPa 61.0 mm 9.3°
3
1%
17:00
20°
1011.6 hPa 61.0 mm 10.3°
3
1%
20:00
16°
1011.6 hPa 61.1 mm 11.7°
2
1%
23:00
14°
1011.5 hPa 61.2 mm 10.9°
2
1%
 06:12     20:51    Daglengte: 14:39 Vrijdag 06 Aug
02:00
13°
1011.2 hPa 61.6 mm 12.2°
1
1%
05:00
11°
1011.2 hPa 62.3 mm 11.0°
2
1%
08:00
13°
1011.6 hPa 62.5 mm 12.1°
2
1%
11:00
17°
1011.7 hPa 62.7 mm 12.3°
5
1%
14:00
19°
1011.3 hPa 63.4 mm 13.3°
5
1%
17:00
19°
1011.5 hPa 63.8 mm 11.4°
4
1%
20:00
16°
1012.9 hPa 63.9 mm 11.9°
1
1%
23:00
12°
1015.1 hPa 63.9 mm 9.8°
2
0%
 06:13     20:49    Daglengte: 14:36 Zaterdag 07 Aug
02:00
12°
1015.1 hPa 63.9 mm 9.1°
1
0%
05:00
10°
1014.8 hPa 63.9 mm 8.9°
1
0%
08:00
13°
1014.3 hPa 63.9 mm 9.7°
1
0%
11:00
20°
1012.8 hPa 63.9 mm 10.9°
1
1%
14:00
24°
1011.1 hPa 63.9 mm 12.1°
1
0%
17:00
24°
1011.0 hPa 63.9 mm 13.2°
1
0%
20:00
20°
1011.3 hPa 63.9 mm 16.0°
1
0%
23:00
16°
1012.7 hPa   13.5°
2
0%
 06:14     20:48    Daglengte: 14:34 Zondag 08 Aug
02:00
15°
1013.1 hPa 127.9 mm 10.5°
1
0%
08:00
16°
1013.5 hPa 127.9 mm 12.3°
1
0%
14:00
26°
1015.3 hPa 127.9 mm 15.9°
3
0%
20:00
16°
1019.7 hPa 130.5 mm 15.9°
1
1%
 06:16     20:46    Daglengte: 14:30 Maandag 09 Aug
02:00
16°
1022.4 hPa 136.5 mm 14.9°
1
1%
08:00
15°
1023.7 hPa 139.0 mm 13.5°
1
1%
14:00
22°
1023.7 hPa 139.6 mm 12.2°
2
1%
20:00
17°
1024.7 hPa 139.7 mm 13.7°
1
0%
 06:17     20:44    Daglengte: 14:27 Dinsdag 10 Aug
02:00
12°
1027.0 hPa 139.7 mm 10.7°
1
1%
08:00
13°
1026.4 hPa 139.7 mm 10.7°
0
0%
14:00
23°
1023.4 hPa 139.7 mm 10.7°
2
0%
20:00
20°
1020.9 hPa 1.3 mm 16.8°
1
53%
 06:18     20:43    Daglengte: 14:25 Woensdag 11 Aug
02:00
15°
1021.8 hPa 1.0 mm 13.7°
0
42%
08:00
16°
1021.2 hPa   14.2°
0
44%
14:00
24°
1019.3 hPa 0.6 mm 16.0°
1
47%
20:00
20°
1019.7 hPa 1.7 mm 16.8°
1
49%
 06:20     20:41    Daglengte: 14:21 Donderdag 12 Aug
02:00
15°
1020.8 hPa 0.1 mm 13.9°
0
50%
08:00
16°
1020.5 hPa 0.6 mm 14.2°
0
50%
14:00
24°
1019.2 hPa 0.6 mm 16.5°
1
47%
20:00
20°
1019.5 hPa 1.8 mm 17.1°
1
50%
 06:21     20:39    Daglengte: 14:18 Vrijdag 13 Aug
02:00
16°
1020.8 hPa 2.0 mm 13.9°
0
42%
08:00
16°
1020.9 hPa 0.8 mm 14.4°
0
38%
14:00
24°
1019.6 hPa 1.6 mm 16.4°
1
47%
20:00
21°
1019.8 hPa 1.2 mm 17.3°
1
48%
 06:22     20:38    Daglengte: 14:16 Zaterdag 14 Aug
02:00
16°
1021.2 hPa 0.4 mm 14.2°
0
45%
08:00
17°
1020.7 hPa 0.2 mm 14.6°
0
52%
14:00
25°
1018.7 hPa 0.4 mm 16.6°
1
49%
20:00
21°
1018.8 hPa 0.8 mm 17.3°
1
43%
 06:24     20:36    Daglengte: 14:12 Zondag 15 Aug
02:00
16°
1019.9 hPa 0.4 mm 14.1°
0
40%
08:00
17°
1019.4 hPa 0.4 mm 14.4°
0
37%
14:00
25°
1017.6 hPa 0.9 mm 16.4°
1
40%
20:00
21°
1018.0 hPa 1.1 mm 17.2°
1
45%
  CAPE Lifted Index Hail Supercell Tornado SRH 3km CL BTM PRES CL TOP PRES Swiss DWD icon SMHI TS
 06:06     20:58    Daglengte: 14:52 Vandaag
01:00 0 J/kg -0.8 K 0 % 0 % 0 % 0 m²/s² 0 0 -0.77 80
02:00 0 J/kg -1.3 K 0 % 0 % 0 % 0 m²/s² 0 0 -1.12 80
03:00 1 J/kg -1.2 K 0 % 0 % 0 % 0 m²/s² 0 0 -1.02 80
04:00 3 J/kg 0.3 K 0 % 0 % 0 % 0 m²/s² 0 0 0.6 61
05:00 0 J/kg 0.8 K 0 % 0 % 0 % 0 m²/s² 0 0 0.83 63
06:00 11 J/kg 1.4 K 0 % 0 % 0 % 0 m²/s² 0 0 1.67 63
07:00 48 J/kg 1.8 K 0 % 0 % 0 % 0 m²/s² 0 0 1.8 61
08:00 99 J/kg 1.7 K 0 % 0 % 0 % 0 m²/s² 0 0 1.82 61
09:00 112 J/kg 1.1 K 0 % 0 % 0 % 0 m²/s² 0 0 1.13 61
10:00 111 J/kg 0.5 K 0 % 0 % 0 % 0 m²/s² 0 0 0.53 61
11:00 128 J/kg 0.0 K 0 % 0 % 0 % 0 m²/s² 0 0 0.09 61
12:00 151 J/kg -0.1 K 0 % 0 % 0 % 0 m²/s² 0 0 0.02 61
13:00 279 J/kg -1.1 K 0 % 0 % 0 % 0 m²/s² 0 0 -0.92 61
14:00 403 J/kg -1.6 K 0 % 0 % 0 % 0 m²/s² 0 0 -1.39 61
15:00 600 J/kg -2.4 K 0 % 0 % 0 % 0 m²/s² 0 0 -2.22 61
16:00 243 J/kg -1.0 K 0 % 0 % 0 % 0 m²/s² 0 0 -0.82 61
17:00 491 J/kg -1.6 K 0 % 0 % 0 % 0 m²/s² 0 0 -1.03 61
18:00 423 J/kg -1.4 K 0 % 0 % 0 % 0 m²/s² 0 0 -0.41 3
19:00 256 J/kg -0.9 K 0 % 0 % 0 % 0 m²/s² 0 0 0.54 3
20:00 357 J/kg -1.4 K 0 % 0 % 0 % 0 m²/s² 0 0 0.34 3
21:00 411 J/kg -2.2 K 0 % 0 % 0 % 0 m²/s² 0 0 -0.1 3
22:00 177 J/kg -2.0 K 0 % 0 % 0 % 0 m²/s² 0 0 -0.44 2
23:00 94 J/kg -1.4 K 0 % 0 % 0 % 0 m²/s² 0 0 -0.98 1
 06:07     20:57    Daglengte: 14:50 Morgen
00:00 58 J/kg -2.1 K 0 % 0 % 0 % 0 m²/s² 0 0 -0.78 1
01:00 52 J/kg -2.5 K 0 % 0 % 0 % 0 m²/s² 0 0 -1.24 1
02:00 0 J/kg -1.6 K 0 % 0 % 0 % 0 m²/s² 0 0 -0.49 2
03:00 2 J/kg -0.9 K 0 % 0 % 0 % 0 m²/s² 0 0 0.06 2
04:00 0 J/kg -0.7 K 0 % 0 % 0 % 0 m²/s² 0 0 0.38 2
05:00 0 J/kg -1.0 K 0 % 0 % 0 % 0 m²/s² 0 0 -0.07 2
06:00 0 J/kg -0.9 K 0 % 0 % 0 % 0 m²/s² 0 0 0.03 2
07:00 0 J/kg -0.4 K 0 % 0 % 0 % 0 m²/s² 0 0 0.11 2
08:00 0 J/kg 0.3 K 0 % 0 % 0 % 0 m²/s² 0 0 0.72 2
09:00 65 J/kg 0.3 K 0 % 0 % 0 % 0 m²/s² 0 0 0.51 2
10:00 198 J/kg -0.5 K 0 % 0 % 0 % 0 m²/s² 0 0 0.46 80
11:00 346 J/kg -1.1 K 0 % 0 % 0 % 0 m²/s² 0 0 0.07 2
12:00 419 J/kg -1.5 K 0 % 0 % 0 % 0 m²/s² 0 0 0.27 2
13:00 373 J/kg -1.3 K 0 % 0 % 0 % 0 m²/s² 0 0 1.07 1
14:00 352 J/kg -1.3 K 0 % 0 % 0 % 0 m²/s² 0 0 1.37 2
15:00 393 J/kg -1.6 K 0 % 0 % 0 % 0 m²/s² 0 0 1.16 2
16:00 195 J/kg -0.8 K 0 % 0 % 0 % 0 m²/s² 0 0 1.96 2
17:00 142 J/kg -0.6 K 0 % 0 % 0 % 0 m²/s² 0 0 2.58 3
18:00 336 J/kg -1.5 K 0 % 0 % 0 % 0 m²/s² 0 0 1.44 2
19:00 468 J/kg -2.0 K 0 % 0 % 0 % 0 m²/s² 0 0 0.76 1
20:00 548 J/kg -2.3 K 0 % 0 % 0 % 0 m²/s² 0 0 0.31 0
21:00 445 J/kg -1.9 K 0 % 0 % 0 % 0 m²/s² 0 0 0.08 2
22:00 378 J/kg -1.8 K 0 % 0 % 0 % 0 m²/s² 0 0 0.45 3
23:00 185 J/kg -1.5 K 0 % 0 % 0 % 0 m²/s² 0 0 0.75 3
 06:08     20:55    Daglengte: 14:47 Dinsdag 03 Aug
00:00 153 J/kg -1.5 K 0 % 0 % 0 % 0 m²/s² 0 0 0.6 2
01:00 150 J/kg -1.2 K 0 % 0 % 0 % 0 m²/s² 0 0 1.05 1
02:00 58 J/kg -1.2 K 0 % 0 % 0 % 0 m²/s² 0 0 1.2 0
03:00 0 J/kg -1.1 K 0 % 0 % 0 % 0 m²/s² 0 0 1.6 0
04:00 0 J/kg -1.4 K 0 % 0 % 0 % 0 m²/s² 0 0 1.45 0
05:00 0 J/kg -1.1 K 0 % 0 % 0 % 0 m²/s² 0 0 1.84 0
06:00 0 J/kg -0.8 K 0 % 0 % 0 % 0 m²/s² 0 0 1.45 2
07:00 0 J/kg -0.8 K 0 % 0 % 0 % 0 m²/s² 0 0 1 3
08:00 0 J/kg -0.4 K 0 % 0 % 0 % 0 m²/s² 0 0 0.95 3
09:00 0 J/kg 0.2 K 0 % 0 % 0 % 0 m²/s² 0 0 1.34 3
10:00 19 J/kg 0.0 K 0 % 0 % 0 % 0 m²/s² 0 0 0.99 2
11:00 233 J/kg -1.3 K 0 % 0 % 0 % 0 m²/s² 0 0 0.05 3
12:00 382 J/kg -1.9 K 0 % 0 % 0 % 0 m²/s² 0 0 -0.4 3
13:00 441 J/kg -2.2 K 0 % 0 % 0 % 0 m²/s² 0 0 -0.34 3
14:00 591 J/kg -2.4 K 0 % 0 % 0 % 0 m²/s² 0 0 -0.78 2
15:00 602 J/kg -2.3 K 0 % 0 % 0 % 0 m²/s² 0 0 -0.74 3
16:00 235 J/kg -0.9 K 0 % 0 % 0 % 0 m²/s² 0 0 0.54 3
17:00 485 J/kg -2.2 K 0 % 0 % 0 % 0 m²/s² 0 0 -0.34 3
18:00 526 J/kg -2.3 K 0 % 0 % 0 % 0 m²/s² 0 0 -0.05 80
19:00 430 J/kg -1.0 K 0 % 0 % 0 % 0 m²/s² 0 0 1.34 80
20:00 327 J/kg 0.0 K 0 % 0 % 0 % 0 m²/s² 0 0 0.3 3
21:00 253 J/kg 0.7 K 0 % 0 % 0 % 0 m²/s² 0 0 3.04 3
22:00 209 J/kg 1.7 K 0 % 0 % 0 % 0 m²/s² 0 0 4.82 2
23:00 165 J/kg 2.8 K 0 % 0 % 0 % 0 m²/s² 0 0 6.16 0
 06:09     20:54    Daglengte: 14:45 Woensdag 04 Aug
00:00 92 J/kg 3.6 K 0 % 0 % 0 % 0 m²/s² 0 0 7.17 0
Temp Baro Wind Neerslag
  EWN Forecast EWN WRFDA DWD ICON FMI HIRLAM MET Norway GFS
 06:06     20:58    Daglengte: 14:52 Vandaag
02:00 15.7° 1010.2 hPa 1.6 m/s 2.5 mm 15.2° 1007.5 hPa 0.6 m/s 1.1 mm 15.7° 1010.9 hPa 1.7 m/s 0.9 mm 16.7° 1009.1 hPa 1.6 m/s 0.0 mm 14.4° 1009.6 hPa 1.4 m/s
05:00 14.5° 1009.6 hPa 2.9 m/s 12.0 mm 14.1° 1007.0 hPa 3.9 m/s 11.9 mm 13.9° 1010.6 hPa 3.6 m/s 9.5 mm 15.7° 1008.7 hPa 3.0 m/s 0.0 mm 13.9° 1010.6 hPa 2.1 m/s
08:00 14.3° 1011.3 hPa 2.5 m/s 11.7 mm 14.0° 1008.6 hPa 2.4 m/s 25.6 mm 13.6° 1012.7 hPa 0.7 m/s 7.9 mm 15.0° 1010.6 hPa 3.6 m/s 0.0 mm 13.8° 1011.2 hPa 1.0 m/s
11:00 14.1° 1013.0 hPa 1.5 m/s 11.0 mm 14.9° 1010.2 hPa 0.6 m/s 38.4 mm 13.8° 1014.0 hPa 1.4 m/s 5.9 mm 15.2° 1012.0 hPa 2.7 m/s 0.0 mm 14.0° 1011.9 hPa 0.8 m/s
14:00 16.9° 1012.3 hPa 1.4 m/s 0.0 mm 18.4° 1009.9 hPa 1.7 m/s 42.7 mm 15.3° 1013.6 hPa 1.3 m/s 2.0 mm 17.1° 1012.0 hPa 2.0 m/s 0.0 mm 13.8° 1012.7 hPa 0.4 m/s
17:00 17.5° 1012.2 hPa 1.9 m/s 0.0 mm 17.8° 1010.6 hPa 2.0 m/s 56.8 mm 15.5° 1013.2 hPa 1.9 m/s 0.6 mm 18.7° 1010.9 hPa 1.4 m/s 0.0 mm 13.3° 1013.6 hPa 1.8 m/s
20:00 16.0° 1013.1 hPa 1.7 m/s 0.0 mm 17.5° 1010.7 hPa 2.8 m/s 64.3 mm 14.7° 1014.0 hPa 2.0 m/s 0.1 mm 18.4° 1011.3 hPa 0.5 m/s 0.0 mm 13.0° 1014.7 hPa 1.1 m/s
23:00 14.6° 1014.6 hPa 2.0 m/s 0.0 mm 14.8° 1012.8 hPa 3.0 m/s 65.6 mm 13.4° 1015.0 hPa 1.0 m/s 0.0 mm 16.0° 1013.9 hPa 3.3 m/s 0.0 mm 11.0° 1015.9 hPa 1.4 m/s
 06:07     20:57    Daglengte: 14:50 Morgen
02:00 13.5° 1014.9 hPa 1.6 m/s 0.0 mm 14.0° 1013.2 hPa 2.1 m/s 66.6 mm 12.3° 1015.4 hPa 0.8 m/s 0.0 mm 14.6° 1014.1 hPa 2.0 m/s 0.0 mm 9.6° 1016.2 hPa 1.4 m/s
05:00 12.9° 1014.9 hPa 1.0 m/s 0.0 mm 11.8° 1014.0 hPa 2.2 m/s 67.5 mm 11.9° 1015.2 hPa 0.7 m/s 0.0 mm 13.7° 1015.0 hPa 2.1 m/s 0.0 mm 9.0° 1016.8 hPa 1.3 m/s
08:00 13.7° 1015.8 hPa 0.9 m/s 0.0 mm 13.8° 1015.4 hPa 3.5 m/s 68.1 mm 13.2° 1016.6 hPa 0.4 m/s 0.4 mm 15.0° 1015.5 hPa 1.4 m/s 0.0 mm 11.8° 1017.3 hPa 0.8 m/s
11:00 16.5° 1016.1 hPa 1.6 m/s 0.0 mm 17.4° 1015.7 hPa 3.2 m/s 68.5 mm 15.8° 1016.9 hPa 1.4 m/s 0.8 mm 16.8° 1015.5 hPa 2.4 m/s 0.0 mm 18.4° 1016.3 hPa 1.2 m/s
14:00 19.6° 1015.0 hPa 2.6 m/s 0.0 mm 20.7° 1014.6 hPa 3.3 m/s 68.5 mm 19.0° 1015.6 hPa 2.7 m/s 0.4 mm 20.0° 1015.0 hPa 3.4 m/s 0.0 mm 21.4° 1014.8 hPa 2.3 m/s
17:00 20.2° 1014.6 hPa 2.9 m/s 8.1 mm 21.5° 1013.9 hPa 3.5 m/s 68.5 mm 20.2° 1014.9 hPa 3.1 m/s 0.1 mm 21.2° 1014.8 hPa 2.8 m/s
20:00 18.5° 1015.0 hPa 1.7 m/s 7.7 mm 20.1° 1014.3 hPa 2.1 m/s 68.6 mm 18.4° 1015.1 hPa 1.9 m/s 0.0 mm 16.0° 1015.9 hPa 1.8 m/s
23:00 15.1° 1016.1 hPa 0.7 m/s 0.0 mm 14.7° 1015.6 hPa 2.2 m/s 68.9 mm 15.5° 1016.6 hPa 0.4 m/s 0.0 mm 12.6° 1018.0 hPa 1.9 m/s
 06:08     20:55    Daglengte: 14:47 Dinsdag 03 Aug
02:00 13.4° 1015.4 hPa 1.1 m/s 0.0 mm 13.4° 1015.3 hPa 2.1 m/s 68.9 mm 13.6° 1016.0 hPa 0.9 m/s 0.0 mm 12.0° 1017.4 hPa 1.7 m/s
05:00 12.4° 1014.8 hPa 1.1 m/s 0.0 mm 11.7° 1014.3 hPa 2.5 m/s 68.9 mm 12.4° 1015.7 hPa 0.7 m/s 0.0 mm 10.9° 1016.5 hPa 1.5 m/s
08:00 14.0° 1014.7 hPa 0.9 m/s 0.0 mm 15.8° 1014.3 hPa 1.2 m/s 68.9 mm 13.8° 1015.6 hPa 0.2 m/s 0.0 mm 13.5° 1016.1 hPa 1.0 m/s
11:00 18.8° 1014.0 hPa 1.0 m/s 0.0 mm 21.0° 1013.2 hPa 1.3 m/s 68.9 mm 18.8° 1014.8 hPa 1.0 m/s 0.0 mm 21.1° 1014.2 hPa 0.6 m/s
14:00 20.8° 1013.0 hPa 2.1 m/s 17.2 mm 21.3° 1012.2 hPa 6.1 m/s 69.3 mm 21.4° 1013.0 hPa 1.0 m/s 0.0 mm 19.5° 1014.4 hPa 5.9 m/s
17:00 20.9° 1012.4 hPa 1.7 m/s 0.0 mm 19.7° 1012.5 hPa 4.3 m/s 71.9 mm 21.2° 1012.3 hPa 1.0 m/s 0.2 mm 14.8° 1016.2 hPa 1.8 m/s
20:00 17.5° 1013.9 hPa 2.5 m/s 16.7 mm 18.0° 1012.8 hPa 3.5 m/s 73.7 mm 17.4° 1014.1 hPa 2.2 m/s 0.7 mm 15.1° 1015.4 hPa 1.8 m/s
23:00 15.1° 1014.8 hPa 1.1 m/s 0.0 mm 15.0° 1013.8 hPa 2.2 m/s 75.0 mm 15.2° 1015.0 hPa 0.8 m/s 0.0 mm 12.5° 1015.9 hPa 2.0 m/s
 06:09     20:54    Daglengte: 14:45 Woensdag 04 Aug
02:00 13.9° 1014.6 hPa 1.4 m/s 0.0 mm 14.7° 1013.3 hPa 2.7 m/s 75.0 mm 13.7° 1015.0 hPa 1.1 m/s 0.0 mm 13.7° 1014.7 hPa 0.6 m/s
05:00 12.2° 1013.7 hPa 0.4 m/s 52.1 mm 12.2° 1013.7 hPa 0.4 m/s 52.1 mm
08:00 14.4° 1013.7 hPa 0.6 m/s 52.2 mm 14.4° 1013.7 hPa 0.6 m/s 52.2 mm
11:00 13.7° 1014.8 hPa 1.6 m/s 55.5 mm 13.7° 1014.8 hPa 1.6 m/s 55.5 mm
14:00 15.2° 1015.0 hPa 1.0 m/s 56.8 mm 15.2° 1015.0 hPa 1.0 m/s 56.8 mm
17:00 14.9° 1016.3 hPa 1.6 m/s 58.3 mm 15.0° 1016.3 hPa 1.6 m/s 58.3 mm
20:00 13.7° 1017.0 hPa 2.1 m/s 59.7 mm 13.7° 1017.0 hPa 2.1 m/s 59.7 mm
23:00 12.8° 1018.3 hPa 1.3 m/s 60.8 mm 12.8° 1018.3 hPa 1.3 m/s 60.8 mm
 06:11     20:52    Daglengte: 14:41 Donderdag 05 Aug
02:00 10.7° 1018.3 hPa 0.7 m/s 61.0 mm 10.7° 1018.3 hPa 0.7 m/s 61.0 mm
05:00 9.7° 1017.7 hPa 1.4 m/s 61.0 mm 9.7° 1017.7 hPa 1.4 m/s 61.0 mm
08:00 11.9° 1016.8 hPa 0.7 m/s 61.0 mm 11.9° 1016.8 hPa 0.7 m/s 61.0 mm
11:00 17.4° 1014.7 hPa 1.5 m/s 61.0 mm 17.4° 1014.7 hPa 1.5 m/s 61.0 mm
14:00 19.4° 1013.0 hPa 2.6 m/s 61.0 mm 19.4° 1013.0 hPa 2.6 m/s 61.0 mm
17:00 19.8° 1011.6 hPa 2.6 m/s 61.0 mm 19.8° 1011.6 hPa 2.6 m/s 61.0 mm
20:00 15.7° 1011.6 hPa 1.7 m/s 61.1 mm 15.7° 1011.6 hPa 1.7 m/s 61.1 mm
23:00 13.8° 1011.5 hPa 1.5 m/s 61.2 mm 13.8° 1011.5 hPa 1.5 m/s 61.2 mm
 06:12     20:51    Daglengte: 14:39 Vrijdag 06 Aug
02:00 13.2° 1011.2 hPa 1.1 m/s 61.6 mm 13.2° 1011.2 hPa 1.1 m/s 61.6 mm
05:00 11.5° 1011.2 hPa 1.6 m/s 62.3 mm 11.5° 1011.2 hPa 1.6 m/s 62.3 mm
08:00 13.2° 1011.6 hPa 2.5 m/s 62.5 mm 13.2° 1011.6 hPa 2.5 m/s 62.5 mm
11:00 17.3° 1011.7 hPa 4.9 m/s 62.7 mm 17.3° 1011.7 hPa 4.9 m/s 62.7 mm
14:00 19.2° 1011.3 hPa 4.7 m/s 63.4 mm 19.2° 1011.3 hPa 4.7 m/s 63.4 mm
17:00 19.0° 1011.5 hPa 3.7 m/s 63.8 mm 19.0° 1011.5 hPa 3.7 m/s 63.8 mm
20:00 16.1° 1012.9 hPa 1.4 m/s 63.9 mm 16.1° 1012.9 hPa 1.4 m/s 63.9 mm
23:00 12.3° 1015.1 hPa 1.5 m/s 63.9 mm 12.3° 1015.1 hPa 1.5 m/s 63.9 mm
 06:13     20:49    Daglengte: 14:36 Zaterdag 07 Aug
02:00 11.5° 1015.1 hPa 1.5 m/s 63.9 mm 11.5° 1015.1 hPa 1.5 m/s 63.9 mm
05:00 10.1° 1014.8 hPa 1.2 m/s 63.9 mm 10.1° 1014.8 hPa 1.2 m/s 63.9 mm
08:00 13.2° 1014.3 hPa 0.7 m/s 63.9 mm 13.2° 1014.3 hPa 0.7 m/s 63.9 mm
11:00 19.9° 1012.8 hPa 0.9 m/s 63.9 mm 19.9° 1012.8 hPa 0.9 m/s 63.9 mm
14:00 23.7° 1011.1 hPa 1.4 m/s 63.9 mm 23.7° 1011.2 hPa 1.4 m/s 63.9 mm
17:00 24.3° 1011.0 hPa 1.0 m/s 63.9 mm 24.3° 1011.0 hPa 1.0 m/s 63.9 mm
20:00 19.9° 1011.3 hPa 0.9 m/s 63.9 mm 19.9° 1011.3 hPa 0.9 m/s 63.9 mm
23:00 16.2° 1012.7 hPa 1.6 m/s 63.9 mm 16.2° 1012.7 hPa 1.6 m/s 63.9 mm
 06:14     20:48    Daglengte: 14:34 Zondag 08 Aug
02:00 14.6° 1013.1 hPa 1.1 m/s 63.9 mm 14.6° 1013.1 hPa 1.1 m/s 63.9 mm
08:00 16.5° 1013.5 hPa 1.0 m/s 63.9 mm 16.5° 1013.5 hPa 1.0 m/s 63.9 mm
14:00 25.5° 1015.3 hPa 3.3 m/s 63.9 mm 25.5° 1015.3 hPa 3.3 m/s 63.9 mm
20:00 16.2° 1019.7 hPa 1.1 m/s 66.2 mm 16.2° 1019.7 hPa 1.1 m/s 66.2 mm
 06:16     20:46    Daglengte: 14:30 Maandag 09 Aug
02:00 15.7° 1022.4 hPa 1.1 m/s 68.7 mm 15.7° 1022.4 hPa 1.1 m/s 68.7 mm
08:00 15.1° 1023.7 hPa 0.6 m/s 69.6 mm 15.1° 1023.7 hPa 0.6 m/s 69.6 mm
14:00 21.8° 1023.7 hPa 2.4 m/s 69.8 mm 21.8° 1023.7 hPa 2.4 m/s 69.8 mm
20:00 17.0° 1024.7 hPa 1.4 m/s 69.9 mm 17.0° 1024.7 hPa 1.4 m/s 69.9 mm
 06:17     20:44    Daglengte: 14:27 Dinsdag 10 Aug
02:00 11.6° 1027.0 hPa 0.9 m/s 69.9 mm 11.6° 1027.0 hPa 0.9 m/s 69.9 mm
08:00 13.0° 1026.4 hPa 0.4 m/s 69.9 mm 13.0° 1026.4 hPa 0.4 m/s 69.9 mm
14:00 22.6° 1023.4 hPa 1.8 m/s 69.9 mm 22.6° 1023.4 hPa 1.8 m/s 69.9 mm
20:00 20.3° 1020.9 hPa 0.6 m/s 1.3 mm
 06:18     20:43    Daglengte: 14:25 Woensdag 11 Aug
02:00 15.4° 1021.8 hPa 0.3 m/s 1.0 mm
08:00 16.3° 1021.2 hPa 0.2 m/s 0.0 mm
14:00 23.9° 1019.3 hPa 1.4 m/s 0.6 mm
20:00 19.9° 1019.7 hPa 0.8 m/s 1.7 mm
 06:20     20:41    Daglengte: 14:21 Donderdag 12 Aug
02:00 15.4° 1020.8 hPa 0.2 m/s 0.1 mm
08:00 16.2° 1020.5 hPa 0.1 m/s 0.6 mm
14:00 23.8° 1019.2 hPa 1.4 m/s 0.6 mm
20:00 20.2° 1019.5 hPa 0.9 m/s 1.8 mm
 06:21     20:39    Daglengte: 14:18 Vrijdag 13 Aug
02:00 15.6° 1020.8 hPa 0.5 m/s 2.0 mm
08:00 16.4° 1020.9 hPa 0.3 m/s 0.8 mm
14:00 24.3° 1019.6 hPa 1.2 m/s 1.6 mm
20:00 20.6° 1019.8 hPa 0.8 m/s 1.2 mm
 06:22     20:38    Daglengte: 14:16 Zaterdag 14 Aug
02:00 16.0° 1021.2 hPa 0.4 m/s 0.4 mm
08:00 16.8° 1020.7 hPa 0.3 m/s 0.2 mm
14:00 24.8° 1018.7 hPa 1.3 m/s 0.4 mm
20:00 20.7° 1018.8 hPa 1.0 m/s 0.8 mm
 06:24     20:36    Daglengte: 14:12 Zondag 15 Aug
02:00 15.9° 1019.9 hPa 0.4 m/s 0.4 mm
08:00 16.8° 1019.4 hPa 0.2 m/s 0.4 mm
14:00 24.8° 1017.6 hPa 1.2 m/s 0.9 mm
20:00 20.5° 1018.0 hPa 0.8 m/s 1.1 mm
FMI Hirlam - 7.5 km EWN WRFDA - 12 km DWD ICON - 7 km GFS - 25 km Basiskaart






























































Updatetijd (Europe/Amsterdam) Resolutie Lengte Stap
FMI Hirlam 19:00, 01:00, 07:00, 13:00 7.5 km 49h 1h
EWN WRFDA 22:15, 04:15, 10:15, 16:15 12 km 73h 1h
DWD ICON 23:45, 05:45, 11:45, 17:45 7 km 75h 1h
GFS 20:15, 02:15, 08:15, 14:15 25 km 237h 3h
30+ mm
25-30 mm
20-25 mm
15-20 mm
10-15 mm
6-10 mm
4-6 mm
2-4 mm
1-2 mm
0.5-1 mm
0.2-0.5 mm
0.1-0.2 mm
30+ mm
25-30 mm
20-25 mm
15-20 mm
10-15 mm
6-10 mm
4-6 mm
2-4 mm
1-2 mm
0.5-1 mm
0.2-0.5 mm
0.1-0.2 mm
Sneeuwval
Natte sneeuw
Hagel
Vorst
30+ mm
25-30 mm
20-25 mm
15-20 mm
10-15 mm
6-10 mm
4-6 mm
2-4 mm
1-2 mm
0.5-1 mm
0.2-0.5 mm
0.1-0.2 mm
Sneeuwval
Natte sneeuw
Hagel
Vorst
Onweer
50 mm
40 mm
30 mm
26 mm
22 mm
18 mm
14 mm
10 mm
9 mm
8 mm
7 mm
6 mm
5 mm
4.5 mm
4 mm
3.5 mm
3 mm
2.5 mm
2 mm
1.5 mm
1 mm
0.8 mm
0.6 mm
0.4 mm
0.2 mm
0.05 mm
35°
30°
25°